Location: Siratepeler Tepesi
(39.1042°N, 32.0781°E)
Time: 04:39:07
(UTC+00:00)

Cosmos 2278 - Pass Details

Date: 11 April 2026
Orbit: 836 x 852 km, 71.1° (Epoch: 9 May)

Event Time Altitude Azimuth Distance (km) Brightness Sun altitude
Rises 16:47:03 0° 208° (SSW) 3,374 7.0 -5.0°
Reaches altitude 10° 16:49:29 10° 211° (SSW) 2,446 6.3 -5.4°
Maximum altitude 16:55:04 69° 294° (WNW) 900 4.2 -6.5°
Drops below altitude 10° 17:00:44 10° 18° (NNE) 2,471 6.1 -7.5°
Sets 17:03:12 0° 21° (NNE) 3,412 6.8 -8.0°
